RH
62 59 49 45 41 42 42 48 56 50 63 67 76 78 80 81 78 73 72 69 67 65 63 64 66 69 70 66 63 63 62 64 68 71 72 77 82 84 86 91 83 86 88 71
67 71 66 55 45 48 54 48 51 72 85 72 73 75 79 78 76 76 72 69 69 67 66 67 68 70 59 54 53 56 55 67 70 70 72 80 83 85 87 93 95 93 84 75
55 84 61 54 53 50 50 57 54 83 69 75 80 80 86 84 81 81 80 77 76 74 73 69 66 55 46 48 49 51 62 68 73 75 75 75 76 91 95 96 94 86 74 74
74 75 53 40 51 47 54 70 74 79 77 75 79 85 87 86 85 80 78 75 74 72 62 58 46 40 46 43 48 54 67 73 78 81 85 85 90 93 92 94 93 88 81 78
80 79 50 46 58 70 59 62 78 82 84 82 87 92 92 85 83 78 80 78 78 69 50 39 39 41 45 49 49 62 69 74 75 82 89 93 93 88 92 95 91 84 81 78
98 67 55 44 59 51 50 71 80 82 86 89 95 99 86 88 82 79 77 60 40 36 38 42 43 48 53 52 53 64 69 72 77 89 94 95 94 96 96 81 85 84 79 83
100 86 73 54 55 53 68 55 88 80 84 89 89 84 75 79 80 63 39 39 40 45 47 47 51 56 59 60 60 56 70 79 88 91 92 92 93 78 90 87 86 93 95 89
96 95 74 57 60 64 66 88 86 89 87 86 80 83 78 71 44 40 40 44 45 50 53 55 58 63 67 70 63 64 79 88 91 91 88 86 83 71 82 93 91 97 97 95
76 78 61 63 71 84 84 89 90 88 86 80 81 74 64 46 43 42 47 49 50 57 59 63 65 68 74 71 74 82 85 89 96 87 93 91 75 81 84 83 95 96 99 98
75 61 68 71 89 88 85 87 85 81 81 74 71 61 48 42 44 50 53 56 57 61 67 72 71 70 73 78 91 92 92 96 97 90 88 92 97 83 92 97 98 98 98 98
84 81 92 89 88 87 87 86 80 77 71 70 55 48 45 47 52 58 61 60 63 69 74 75 75 73 75 83 95 88 90 91 99 94 99 96 89 86 88 89 93 97 97 97
84 70 77 77 89 88 90 84 76 67 54 48 46 47 49 55 58 63 66 66 71 75 77 79 77 79 84 75 80 96 95 91 98 99 98 95 90 90 82 82 85 83 84 95
72 89 90 94 92 87 82 73 62 59 47 46 48 52 57 60 64 72 70 73 78 81 83 85 88 91 66 75 92 98 98 97 99 97 94 89 88 86 94 86 83 81 80 79
92 90 96 94 94 83 66 60 50 46 47 53 61 62 63 67 77 76 78 83 85 90 93 92 80 76 78 71 92 99 97 97 99 98 93 90 95 95 96 99 99 99 86 87
92 84 84 87 85 75 43 44 50 52 59 64 64 67 74 77 80 84 90 92 92 82 74 75 76 80 82 97 98 94 90 97 97 99 97 94 95 96 98 98 98 98 98 94
88 83 78 76 55 47 48 51 56 62 63 66 68 73 79 83 87 92 92 91 88 79 76 77 84 80 88 98 94 88 83 87 92 96 95 95 97 98 99 98 98 98 99 98
85 65 60 65 73 71 59 60 62 64 70 70 74 82 86 93 97 91 89 89 91 83 85 90 89 85 89 93 88 86 97 96 90 95 96 94 95 96 97 99 98 99 98 98
58 62 71 84 74 71 71 71 68 71 71 78 92 97 98 100 99 95 92 89 92 89 85 86 87 90 92 90 91 88 96 94 96 97 95 97 95 97 97 99 99 99 97 98
85 86 70 61 60 61 59 61 66 77 91 93 96 94 95 96 96 94 92 92 90 91 83 88 88 97 98 87 94 97 96 95 94 95 97 95 97 95 98 98 98 98 98 100
57 55 57 57 62 62 65 66 88 83 82 94 97 99 98 95 96 95 95 96 88 83 89 91 93 97 96 94 91 94 94 96 97 96 96 95 96 95 95 98 100 99 98 98
69 64 68 72 81 86 90 92 93 91 84 95 98 96 96 96 98 97 98 97 85 89 92 97 95 95 97 97 93 98 97 95 95 95 96 96 97 97 96 96 96 98 98 99
67 79 83 86 89 83 85 86 87 92 93 94 95 97 100 98 99 97 95 96 87 95 95 88 87 90 87 88 90 97 97 97 97 97 97 97 96 97 97 96 97 97 97 98
73 73 78 90 91 80 84 89 90 93 92 91 92 93 95 95 97 98 95 88 95 98 95 92 88 96 97 96 93 95 97 96 96 96 96 96 96 96 96 96 95 95 97 97
74 75 76 78 91 93 88 77 82 85 91 91 93 93 96 98 99 96 93 97 100 100 98 90 87 90 91 95 97 97 98 97 97 97 97 96 97 96 96 96 97 96 96 97
81 80 80 92 89 87 86 83 89 91 92 92 94 95 98 98 98 92 97 97 99 100 97 90 89 89 92 92 93 95 96 96 96 97 97 97 97 97 97 97 96 96 96 97
88 93 94 91 94 94 93 93 95 92 94 96 96 96 96 96 97 98 98 99 98 98 98 97 92 92 93 93 93 92 92 91 93 96 97 95 96 97 97 97 97 97 97 97
94 98 94 93 88 90 92 95 98 96 94 98 97 96 97 97 98 98 96 98 98 100 99 98 97 94 93 91 91 91 89 93 93 94 97 96 96 96 98 97 97 97 98 98
Wind_Speed
4 5 2 1 4 5 6 5 7 6 8 5 10 8 6 6 5 5 3 3 2 2 4 5 5 5 4 4 5 4 5 5 6 6 5 6 6 6 5 5 5 2 4 6
1 5 6 3 5 7 5 4 5 3 3 5 4 5 6 6 5 2 0 2 3 5 6 6 4 4 4 4 5 4 6 5 5 6 6 6 6 5 3 3 4 5 5 0
4 4 5 7 9 9 4 2 6 7 8 8 5 6 6 5 2 1 2 4 4 4 5 4 3 2 4 5 6 6 4 4 5 6 6 6 6 3 2 3 0 2 4 3
2 3 2 7 5 6 5 2 2 3 8 8 5 3 4 2 2 4 4 4 5 3 3 2 3 5 6 7 7 5 4 4 5 6 6 7 6 3 2 1 3 4 2 3
4 3 6 4 5 7 7 7 7 7 6 5 5 4 4 6 6 5 3 3 3 2 0 3 6 7 6 7 5 4 5 5 6 6 6 6 5 6 6 5 3 2 3 2
3 4 7 6 2 5 4 7 9 8 9 8 8 3 5 8 5 3 3 3 3 4 3 4 5 4 3 5 6 7 6 6 6 5 6 6 5 4 3 1 3 4 3 2
2 3 9 7 4 3 7 10 8 11 11 9 6 5 2 6 3 3 4 6 3 3 2 4 4 4 6 6 7 9 6 5 5 5 6 5 5 2 3 3 3 2 1 1
3 2 9 7 4 8 8 1 7 6 6 7 5 5 5 5 7 6 6 3 3 3 4 4 5 6 7 7 9 10 5 4 4 5 5 5 4 2 2 3 3 1 2 3
10 9 4 5 3 0 4 5 6 7 6 6 7 6 6 6 6 4 3 2 1 3 4 5 5 5 6 8 9 8 4 4 5 6 5 5 3 2 2 1 1 2 2 2
3 4 6 5 1 3 3 5 6 6 7 7 6 6 6 5 4 3 1 2 3 4 5 6 4 5 6 6 6 6 9 8 5 5 3 3 2 1 1 1 1 2 2 2
5 5 1 5 6 6 5 6 7 6 5 7 8 6 5 4 4 2 1 3 3 4 5 6 5 5 6 6 5 8 6 8 4 3 3 2 2 1 1 3 4 3 3 3
8 7 5 5 7 7 7 6 7 8 5 4 6 7 5 5 3 1 3 3 4 5 5 6 5 5 5 8 7 7 7 5 2 1 1 1 1 2 4 5 6 5 5 6
4 3 2 3 7 5 6 7 6 7 7 8 4 5 5 3 2 1 3 4 5 6 6 6 6 6 10 8 5 7 5 5 1 1 2 2 2 3 3 5 6 5 5 5
5 8 4 2 5 6 6 6 9 8 7 5 5 3 3 2 1 3 4 5 5 6 6 6 9 10 8 8 6 4 4 5 3 3 3 2 2 3 2 2 2 4 5 3
3 3 2 6 7 5 9 10 10 8 6 4 3 2 2 1 3 4 4 4 4 7 10 10 11 10 7 4 4 5 3 3 3 2 3 4 3 3 2 3 3 4 2 3
3 6 8 10 10 11 9 7 7 5 4 3 2 0 1 1 2 3 4 5 5 9 10 12 9 9 5 5 5 4 3 4 3 3 3 3 2 2 3 3 3 3 2 3
10 7 10 11 13 8 3 3 4 3 3 1 1 1 2 1 3 3 4 5 5 8 8 6 11 8 4 5 6 3 2 3 5 3 4 4 3 4 4 3 4 3 4 4
14 13 14 9 6 5 4 3 1 0 0 1 1 0 2 2 5 5 6 6 6 7 8 7 7 7 6 4 6 4 3 4 3 3 4 3 4 3 4 3 4 4 4 3
11 7 5 6 5 4 2 0 1 2 2 3 1 5 4 5 5 7 8 7 7 7 7 6 7 6 7 8 6 4 4 4 4 4 3 5 4 4 4 4 4 4 4 4
7 5 5 4 2 1 1 3 3 3 5 3 3 3 6 7 5 6 6 8 9 8 6 7 7 7 9 9 8 6 7 6 6 6 5 5 5 6 5 5 5 5 4 4
6 5 4 3 2 3 4 3 2 5 7 3 5 7 7 6 4 5 6 7 8 7 6 6 7 8 7 7 7 7 7 7 7 7 7 6 6 5 5 6 5 4 4 4
2 1 1 2 2 5 5 5 6 5 6 6 5 5 5 7 6 6 7 9 9 7 5 7 6 9 10 13 8 8 8 8 7 6 6 7 6 6 7 6 6 5 5 4
3 2 3 3 3 6 6 6 6 6 7 7 7 6 7 6 4 6 7 5 4 5 7 8 12 12 12 8 8 8 9 9 8 7 8 8 8 7 7 7 6 6 5 5
3 4 4 5 4 3 6 8 7 7 6 7 7 7 5 6 5 5 6 6 7 6 5 7 10 13 13 7 7 7 7 8 8 8 8 11 8 8 8 7 6 6 5 5
3 4 3 4 5 6 7 9 7 7 7 7 7 6 8 6 6 4 2 4 5 4 4 7 11 12 9 9 9 8 8 7 8 9 9 8 8 9 9 7 7 6 4 4
6 4 4 5 5 5 6 6 7 8 6 6 5 5 5 4 3 3 3 1 2 4 3 4 6 7 8 9 10 11 11 10 9 8 9 9 9 9 8 6 5 5 4 4
5 6 7 7 6 8 8 9 9 11 8 5 8 7 5 4 3 2 3 1 2 3 3 3 4 6 8 10 10 11 11 10 12 12 9 8 8 8 5 4 4 3 2 1
Wind_Direction
58 18 4 173 168 184 195 189 165 239 210 198 176 168 165 139 122 100 77 43 7 318 324 346 339 323 337 350 345 328 323 327 315 307 305 301 284 278 287 287 286 64 332 283
112 5 3 284 225 242 225 203 243 145 228 161 139 129 130 139 137 137 114 287 337 360 344 331 337 3 352 338 325 322 349 349 342 339 335 325 309 285 302 358 332 338 286 33
258 349 336 333 222 194 186 204 148 181 214 154 167 166 169 172 173 216 279 287 309 309 298 305 357 347 331 317 324 336 331 341 334 319 305 296 288 322 334 284 25 248 230 133
199 18 353 240 310 223 173 207 182 110 154 161 165 166 155 174 189 236 247 271 289 294 343 3 353 345 334 339 320 317 319 294 299 299 294 299 312 296 277 283 260 285 95 114
137 200 297 296 189 151 169 247 197 156 146 151 111 82 270 218 213 213 212 253 240 241 233 1 353 336 323 310 302 283 285 295 308 309 311 313 298 299 292 284 253 163 141 113
135 143 214 239 226 134 103 296 181 156 173 163 132 172 251 190 202 194 181 157 82 50 13 354 322 326 341 334 324 284 288 297 304 307 302 296 290 268 257 269 153 133 147 72
140 226 287 234 192 118 100 237 166 176 179 160 181 195 186 134 147 139 110 112 92 50 360 320 333 343 352 338 329 306 288 309 322 325 315 305 309 339 102 118 128 88 54 314
102 80 277 172 86 166 209 60 161 145 158 174 184 161 165 156 139 131 134 82 53 19 341 334 350 7 345 330 317 308 291 298 305 308 311 316 296 248 198 149 156 166 349 313
182 213 242 232 238 27 148 144 170 148 166 158 157 181 159 149 139 140 108 53 343 343 339 343 353 14 333 318 322 317 314 326 318 308 312 321 33 95 87 122 117 272 242 272
93 247 233 256 179 187 162 145 144 145 146 147 159 153 141 140 141 137 82 3 336 347 344 329 331 331 295 301 310 329 322 307 295 297 321 20 359 292 166 141 241 256 268 266
260 275 280 251 225 172 128 122 130 142 152 155 137 151 146 140 153 147 38 331 328 329 317 301 306 297 295 302 307 318 312 317 311 330 320 28 37 3 269 246 200 219 240 220
226 213 178 225 184 156 143 161 157 144 111 100 133 146 132 155 163 127 335 319 325 313 309 296 301 306 314 326 323 307 306 308 293 321 66 297 1 311 282 265 277 278 290 206
239 125 103 74 127 140 151 155 144 119 129 127 118 134 134 140 174 245 316 320 322 310 304 302 309 298 324 313 294 285 292 311 225 190 234 247 306 278 274 313 326 319 312 320
125 114 61 218 178 167 135 119 104 95 98 118 118 104 131 169 126 341 337 329 327 322 312 316 319 318 296 314 299 277 272 291 271 234 238 227 240 266 262 228 258 286 306 314
172 9 172 123 115 102 107 110 104 108 111 114 114 144 182 156 336 328 331 330 325 324 326 320 313 295 292 297 288 277 270 259 267 232 245 241 239 261 245 271 236 248 318 324
107 87 90 98 94 83 85 76 106 123 142 166 187 223 111 281 286 315 320 309 327 324 314 315 297 293 286 281 264 261 247 236 239 244 253 266 269 263 273 263 266 254 267 248
124 97 95 83 77 81 106 85 106 145 171 214 271 309 330 347 305 303 305 292 277 304 292 290 289 294 272 300 275 249 258 271 261 243 248 241 247 253 250 242 258 260 255 235
84 84 85 118 159 148 145 140 178 239 232 277 358 24 296 266 254 270 268 258 253 263 275 266 263 267 257 262 270 271 236 239 241 234 249 253 256 249 249 246 252 250 265 264
95 125 131 123 136 134 131 16 306 275 274 233 240 276 247 255 256 261 268 270 266 278 282 259 263 251 255 245 230 225 235 244 259 257 242 260 273 255 249 244 254 255 256 265
101 99 119 127 105 113 215 251 240 279 282 235 239 275 276 269 254 268 270 268 272 269 281 275 273 273 263 259 233 228 228 221 232 241 242 247 250 253 251 246 243 244 252 250
102 87 73 47 322 296 248 259 244 269 272 213 222 256 253 275 265 272 291 286 286 273 280 284 289 286 286 276 261 245 231 235 233 235 238 241 249 247 248 245 238 234 248 243
69 56 304 285 277 290 280 266 245 255 269 274 251 244 243 266 263 262 239 258 288 280 279 292 285 275 283 290 286 265 250 244 239 232 235 236 238 244 247 246 240 237 236 238
19 358 328 313 285 287 300 288 267 240 258 258 257 250 232 236 230 277 291 248 252 280 299 301 303 290 287 289 285 278 265 254 239 236 237 238 236 234 237 238 231 224 229 238
358 344 317 311 328 322 303 292 282 267 241 254 247 236 219 261 268 240 251 280 280 289 289 308 313 313 308 297 287 281 270 266 259 255 248 241 237 232 228 229 225 220 220 231
336 309 298 304 303 295 292 294 288 280 269 261 249 227 224 227 218 265 236 271 284 319 305 323 319 328 323 316 308 296 284 272 265 264 260 252 249 243 236 214 218 210 207 216
360 348 331 325 303 311 317 318 305 295 279 269 259 256 257 243 247 265 261 325 14 326 297 312 347 333 326 323 319 313 307 298 286 269 255 259 257 250 234 211 202 185 190 216
15 12 359 352 352 339 329 321 311 306 292 262 272 271 250 251 244 223 103 21 324 316 322 328 323 349 346 344 340 334 327 323 318 299 269 264 255 248 216 197 176 147 160 192